Wisconsin Dells, Wisconsin, United States (53965)
Lat: 43.63N, Lon: 89.77W
Wx Zone: WIZ057
Local Info
Past Weather Observations for Thursday, July 24, 2014

NOTE: This archive is for the closest National Weather Service station to Wisconsin Dells. Information may differ from the station used for current weather conditions.

Click here for Long-term Archive

Time Weather Temperature Dewpoint Humidity Pressure Winds Precip Visibility
23:55
Clear
61°F / 16°C 55°F / 13°C 83% 30.04 in
(1017 mb)
SW 5.8 mph
(SW 9 kph)
- 10SM
23:35
Clear
61°F / 16°C 55°F / 13°C 83% 30.04 in
(1017 mb)
SSE 3.5 mph
(SSE 6 kph)
- 10SM
23:15
Clear
63°F / 17°C 55°F / 13°C 77% 30.04 in
(1017 mb)
Calm - 10SM
22:55
Clear
61°F / 16°C 55°F / 13°C 83% 30.04 in
(1017 mb)
SSE 3.5 mph
(SSE 6 kph)
- 10SM
22:35
Clear
63°F / 17°C 55°F / 13°C 77% 30.01 in
(1016 mb)
S 5.8 mph
(S 9 kph)
- 10SM
22:15
Clear
63°F / 17°C 55°F / 13°C 77% 30.04 in
(1017 mb)
S 5.8 mph
(S 9 kph)
- 10SM
21:55
Partly Cloudy
63°F / 17°C 55°F / 13°C 77% 30.01 in
(1016 mb)
S 5.8 mph
(S 9 kph)
- 10SM
21:35
Overcast
64°F / 18°C 57°F / 14°C 78% 30.04 in
(1017 mb)
S 4.6 mph
(S 7 kph)
- 10SM
21:15
Mostly Cloudy
64°F / 18°C 55°F / 13°C 73% 30.04 in
(1017 mb)
S 5.8 mph
(S 9 kph)
- 10SM
20:55
Partly Cloudy
64°F / 18°C 55°F / 13°C 73% 30.04 in
(1017 mb)
S 4.6 mph
(S 7 kph)
- 10SM
20:35
Clear
64°F / 18°C 55°F / 13°C 73% 30.01 in
(1016 mb)
S 3.5 mph
(S 6 kph)
- 10SM
20:15
Clear
66°F / 19°C 55°F / 13°C 68% 30.01 in
(1016 mb)
Calm - 10SM
19:55
Clear
64°F / 18°C 55°F / 13°C 73% 30.01 in
(1016 mb)
Calm - 10SM
19:35
Clear
68°F / 20°C 55°F / 13°C 64% 30.01 in
(1016 mb)
Calm - 10SM
19:15
Clear
68°F / 20°C 55°F / 13°C 64% 30.01 in
(1016 mb)
Calm - 10SM
18:55
Clear
70°F / 21°C 55°F / 13°C 60% 30.01 in
(1016 mb)
S 4.6 mph
(S 7 kph)
- 10SM
18:35
Clear
72°F / 22°C 55°F / 13°C 57% 30.04 in
(1017 mb)
Calm - 10SM
18:15
Partly Cloudy
73°F / 23°C 55°F / 13°C 53% 30.04 in
(1017 mb)
SSE 4.6 mph
(SSE 7 kph)
- 10SM
17:55
Partly Cloudy
73°F / 23°C 54°F / 12°C 50% 30.06 in
(1018 mb)
SW 3.5 mph
(SW 6 kph)
- 10SM
17:35
Clear
75°F / 24°C 52°F / 11°C 44% 30.06 in
(1018 mb)
SW 3.5 mph
(SW 6 kph)
- 10SM
17:15
Clear
75°F / 24°C 52°F / 11°C 44% 30.06 in
(1018 mb)
SSW 5.8 mph
(SSW 9 kph)
- 10SM
16:55
Clear
77°F / 25°C 50°F / 10°C 39% 30.06 in
(1018 mb)
SSW 4.6 mph
(SSW 7 kph)
- 10SM
16:35
Partly Cloudy
79°F / 26°C 50°F / 10°C 37% 30.06 in
(1018 mb)
SW 6.9 mph
(SW 11 kph)
- 10SM
16:15
Mostly Cloudy
77°F / 25°C 50°F / 10°C 39% 30.06 in
(1018 mb)
SW 3.5 mph
(SW 6 kph)
- 10SM
15:55
Mostly Cloudy
77°F / 25°C 50°F / 10°C 39% 30.06 in
(1018 mb)
SSW 9.2 mph
(SSW 15 kph)
- 10SM
15:35
Mostly Cloudy
79°F / 26°C 48°F / 9°C 34% 30.06 in
(1018 mb)
SW 6.9 mph
(SW 11 kph)
- 10SM
15:15
Partly Cloudy
79°F / 26°C 50°F / 10°C 37% 30.06 in
(1018 mb)
S 8.1 mph
(S 13 kph)
- 10SM
14:55
Mostly Cloudy
79°F / 26°C 48°F / 9°C 34% 30.09 in
(1019 mb)
SSE 5.8 mph
(SSE 9 kph)
- 10SM
14:35
Clear
79°F / 26°C 48°F / 9°C 34% 30.09 in
(1019 mb)
SW 5.8 mph
(SW 9 kph)
- 10SM
14:15
Partly Cloudy
79°F / 26°C 46°F / 8°C 32% 30.09 in
(1019 mb)
SW 6.9 mph
(SW 11 kph)
- 10SM
14:10
Partly Cloudy
79°F / 26°C 48°F / 9°C 34% 30.09 in
(1019 mb)
SSW 4.6 mph
(SSW 7 kph)
- 10SM
13:40
Clear
79°F / 26°C 46°F / 8°C 32% 30.09 in
(1019 mb)
S 3.5 mph
(S 6 kph)
- 10SM
13:15
Partly Cloudy
77°F / 25°C 48°F / 9°C 36% 30.09 in
(1019 mb)
SSW 9.2 mph
(SSW 15 kph)
- 10SM
12:50
Mostly Cloudy
77°F / 25°C 50°F / 10°C 39% 30.12 in
(1020 mb)
SW 5.8 mph
(SW 9 kph)
- 10SM
12:35
Partly Cloudy
77°F / 25°C 48°F / 9°C 36% 30.12 in
(1020 mb)
SSW 6.9 mph
(SSW 11 kph)
- 10SM
12:15
Partly Cloudy
77°F / 25°C 50°F / 10°C 39% 30.15 in
(1021 mb)
Calm - 10SM
11:55
Partly Cloudy
75°F / 24°C 52°F / 11°C 44% 30.15 in
(1021 mb)
Calm - 10SM
11:35
Clear
73°F / 23°C 50°F / 10°C 44% 30.15 in
(1021 mb)
SE 3.5 mph
(SE 6 kph)
- 10SM
11:15
Clear
73°F / 23°C 50°F / 10°C 44% 30.18 in
(1022 mb)
Calm - 10SM
10:55
Clear
73°F / 23°C 50°F / 10°C 44% 30.18 in
(1022 mb)
Calm - 10SM
10:35
Clear
72°F / 22°C 48°F / 9°C 44% 30.18 in
(1022 mb)
SW 4.6 mph
(SW 7 kph)
- 10SM
10:15
Clear
72°F / 22°C 46°F / 8°C 41% 30.18 in
(1022 mb)
Calm - 10SM
09:55
Partly Cloudy
72°F / 22°C 46°F / 8°C 41% 30.18 in
(1022 mb)
SW 3.5 mph
(SW 6 kph)
- 10SM
09:35
Clear
72°F / 22°C 45°F / 7°C 38% 30.18 in
(1022 mb)
Calm - 10SM
09:15
Clear
70°F / 21°C 45°F / 7°C 40% 30.18 in
(1022 mb)
S 3.5 mph
(S 6 kph)
- 10SM
08:55
Clear
70°F / 21°C 46°F / 8°C 43% 30.18 in
(1022 mb)
ESE 4.6 mph
(ESE 7 kph)
- 10SM
08:15
Clear
66°F / 19°C 46°F / 8°C 49% 30.18 in
(1022 mb)
S 4.6 mph
(S 7 kph)
- 10SM
07:35
Partly Cloudy
63°F / 17°C 50°F / 10°C 64% 30.18 in
(1022 mb)
Calm - 10SM
07:15
Mostly Cloudy
61°F / 16°C 50°F / 10°C 68% 30.18 in
(1022 mb)
Calm - 10SM
06:55
Mostly Cloudy
57°F / 14°C 52°F / 11°C 82% 30.21 in
(1023 mb)
Calm - 10SM
06:35
Mostly Cloudy
55°F / 13°C 52°F / 11°C 88% 30.18 in
(1022 mb)
Calm - 10SM
06:15
Mostly Cloudy
55°F / 13°C 52°F / 11°C 88% 30.21 in
(1023 mb)
Calm - 10SM
05:55
Partly Cloudy
54°F / 12°C 50°F / 10°C 88% 30.21 in
(1023 mb)
Calm - 10SM
05:35
Mostly Cloudy
55°F / 13°C 50°F / 10°C 82% 30.21 in
(1023 mb)
Calm - 10SM
05:15
Partly Cloudy
52°F / 11°C 48°F / 9°C 88% 30.21 in
(1023 mb)
Calm - 10SM
04:55
Clear
52°F / 11°C 46°F / 8°C 82% 30.18 in
(1022 mb)
Calm - 10SM
04:35
Clear
52°F / 11°C 48°F / 9°C 88% 30.21 in
(1023 mb)
Calm - 10SM
04:15
Partly Cloudy
52°F / 11°C 48°F / 9°C 88% 30.21 in
(1023 mb)
Calm - 10SM
03:55
Partly Cloudy
55°F / 13°C 48°F / 9°C 77% 30.21 in
(1023 mb)
Calm - 10SM
03:35
Partly Cloudy
54°F / 12°C 50°F / 10°C 88% 30.18 in
(1022 mb)
Calm - 10SM
03:15
Mostly Cloudy
55°F / 13°C 50°F / 10°C 82% 30.21 in
(1023 mb)
Calm - 10SM
02:55
Partly Cloudy
54°F / 12°C 50°F / 10°C 88% 30.18 in
(1022 mb)
Calm - 10SM
02:35
Partly Cloudy
54°F / 12°C 50°F / 10°C 88% 30.18 in
(1022 mb)
Calm - 10SM
02:15
Partly Cloudy
55°F / 13°C 48°F / 9°C 77% 30.18 in
(1022 mb)
Calm - 10SM
01:55
Partly Cloudy
57°F / 14°C 48°F / 9°C 72% 30.18 in
(1022 mb)
Calm - 10SM
01:35
Partly Cloudy
57°F / 14°C 48°F / 9°C 72% 30.18 in
(1022 mb)
Calm - 10SM
01:15
Partly Cloudy
57°F / 14°C 50°F / 10°C 77% 30.18 in
(1022 mb)
Calm - 10SM
00:55
Clear
57°F / 14°C 50°F / 10°C 77% 30.18 in
(1022 mb)
SSE 3.5 mph
(SSE 6 kph)
- 10SM
00:35
Clear
57°F / 14°C 52°F / 11°C 82% 30.18 in
(1022 mb)
SSE 3.5 mph
(SSE 6 kph)
- 10SM
00:18
Clear
57°F / 14°C 52°F / 11°C 82% 30.18 in
(1022 mb)
SE 3.5 mph
(SE 6 kph)
- 10SM
00:15
Clear
59°F / 15°C 52°F / 11°C 77% 30.18 in
(1022 mb)
SE 3.5 mph
(SE 6 kph)
- 10SM
Time Weather Temperature Dewpoint Humidity Pressure Winds Precip Visibility


Weather for websites

WeatherForYou.com, LLC is not responsible for any damages or problems caused by this service. Current weather conditions are obtained from the closest station including government and personal stations which may have varying degrees of accuracy. Weather forecasts are derived from the NOAA NDFD. Like all things, this site belongs to Jesus Christ... He just trusts me to maintain it. If you have any questions or comments email webmaster@weatherforyou.com

Copyright © 2014, WeatherForYou.com LLC. All rights reserved.